LNI241 WILL-WIII

Flight info

Callsign LNI241
Flight time 0h 33m
Altitude 15000
Route CKG
Aircraft B738/M-SDE2E3FGHIRWXY/LB1

Departure

Time 2026-05-04 12:02
Airport Radin Inten II International Airport (WILL)

Arrival

Time 2026-05-04 12:36
Airport Soekarno-Hatta International Airport (WIII)
Time Latitude Longitude Altitude Speed Heading
2026-05-04 11:34 -5.24219 105.17643 267 ft 0 kts 230°
2026-05-04 11:53 -5.24212 105.17651 272 ft 4 kts 230°
2026-05-04 11:53 -5.24196 105.17670 276 ft 3 kts 230°
2026-05-04 11:55 -5.24204 105.17718 273 ft 0 kts 319°
2026-05-04 11:56 -5.24204 105.17717 273 ft 0 kts 319°
2026-05-04 11:56 -5.24195 105.17709 276 ft 4 kts 319°
2026-05-04 11:57 -5.24164 105.17708 274 ft 5 kts 41°
2026-05-04 11:57 -5.24133 105.17745 273 ft 8 kts 50°
2026-05-04 11:57 -5.24098 105.17768 273 ft 5 kts 348°
2026-05-04 11:57 -5.24058 105.17744 272 ft 9 kts 319°
2026-05-04 11:58 -5.24001 105.17694 274 ft 13 kts 319°
2026-05-04 11:58 -5.23924 105.17631 272 ft 16 kts 319°
2026-05-04 11:58 -5.23835 105.17554 272 ft 18 kts 319°
2026-05-04 11:58 -5.23758 105.17489 271 ft 14 kts 321°
2026-05-04 11:59 -5.23684 105.17417 270 ft 15 kts 306°
2026-05-04 11:59 -5.23637 105.17353 270 ft 10 kts 345°
2026-05-04 11:59 -5.23620 105.17373 270 ft 3 kts 127°
2026-05-04 11:59 -5.23648 105.17397 270 ft 7 kts 139°
2026-05-04 12:00 -5.23695 105.17436 270 ft 10 kts 140°
2026-05-04 12:00 -5.23756 105.17488 271 ft 12 kts 139°
2026-05-04 12:00 -5.23799 105.17524 271 ft 0 kts 140°
2026-05-04 12:02 -5.26047 105.19397 1576 ft 182 kts 144°
2026-05-04 12:03 -5.27033 105.20107 2940 ft 164 kts 145°
2026-05-04 12:03 -5.27904 105.20723 4090 ft 146 kts 144°
2026-05-04 12:03 -5.28739 105.21321 4717 ft 159 kts 144°
2026-05-04 12:03 -5.29743 105.22040 4988 ft 194 kts 144°
2026-05-04 12:04 -5.30927 105.22890 5207 ft 224 kts 144°
2026-05-04 12:04 -5.32261 105.23849 5535 ft 244 kts 144°
2026-05-04 12:04 -5.33684 105.24872 5989 ft 264 kts 144°
2026-05-04 12:04 -5.35213 105.25973 6633 ft 274 kts 143°
2026-05-04 12:05 -5.36775 105.27099 7442 ft 278 kts 143°
2026-05-04 12:05 -5.38356 105.28239 8280 ft 282 kts 143°
2026-05-04 12:05 -5.39960 105.29395 9112 ft 286 kts 143°
2026-05-04 12:05 -5.41564 105.30553 9895 ft 290 kts 143°
2026-05-04 12:06 -5.43226 105.31752 10477 ft 301 kts 143°
2026-05-04 12:06 -5.44971 105.33013 10844 ft 319 kts 143°
2026-05-04 12:06 -5.46841 105.34364 10879 ft 338 kts 143°
2026-05-04 12:06 -5.48762 105.35752 10893 ft 342 kts 143°
2026-05-04 12:07 -5.50693 105.37145 10891 ft 341 kts 143°
2026-05-04 12:07 -5.52617 105.38533 10889 ft 340 kts 143°
2026-05-04 12:07 -5.54514 105.39903 10889 ft 340 kts 143°
2026-05-04 12:07 -5.56432 105.41289 10899 ft 340 kts 143°
2026-05-04 12:08 -5.58352 105.42676 10888 ft 340 kts 143°
2026-05-04 12:08 -5.60275 105.44066 10887 ft 340 kts 143°
2026-05-04 12:08 -5.62196 105.45454 10893 ft 340 kts 143°
2026-05-04 12:08 -5.64118 105.46843 10895 ft 341 kts 143°
2026-05-04 12:09 -5.66044 105.48235 10890 ft 341 kts 143°
2026-05-04 12:09 -5.67971 105.49627 10893 ft 341 kts 143°
2026-05-04 12:09 -5.69882 105.51006 11051 ft 346 kts 143°
2026-05-04 12:09 -5.71847 105.52421 11767 ft 347 kts 143°
2026-05-04 12:10 -5.73810 105.53833 12570 ft 348 kts 143°
2026-05-04 12:10 -5.75784 105.55254 13264 ft 351 kts 143°
2026-05-04 12:10 -5.77782 105.56692 13905 ft 356 kts 143°
2026-05-04 12:10 -5.79804 105.58148 14501 ft 359 kts 143°
2026-05-04 12:11 -5.81835 105.59611 14824 ft 359 kts 143°
2026-05-04 12:11 -5.83893 105.61094 14885 ft 370 kts 143°
2026-05-04 12:11 -5.85978 105.62596 14898 ft 377 kts 143°
2026-05-04 12:11 -5.88103 105.64127 14875 ft 375 kts 143°
2026-05-04 12:12 -5.90217 105.65650 14884 ft 373 kts 143°
2026-05-04 12:12 -5.92323 105.67168 14896 ft 372 kts 143°
2026-05-04 12:12 -5.94426 105.68683 14889 ft 372 kts 143°
2026-05-04 12:12 -5.96528 105.70199 14898 ft 372 kts 143°
2026-05-04 12:13 -5.98633 105.71716 14897 ft 372 kts 143°
2026-05-04 12:14 -6.13359 105.82338 14905 ft 374 kts 143°
2026-05-04 12:15 -6.15471 105.83862 14900 ft 374 kts 143°
2026-05-04 12:15 -6.17352 105.85598 14891 ft 373 kts 125°
2026-05-04 12:15 -6.18494 105.87912 14910 ft 371 kts 107°
2026-05-04 12:15 -6.18874 105.90470 14915 ft 371 kts 91°
2026-05-04 12:16 -6.18868 105.93063 14902 ft 372 kts 89°
2026-05-04 12:16 -6.18845 105.95662 14901 ft 372 kts 89°
2026-05-04 12:16 -6.18823 105.98259 14894 ft 372 kts 90°
2026-05-04 12:16 -6.18808 106.00864 14902 ft 372 kts 90°
2026-05-04 12:17 -6.18798 106.03463 14906 ft 372 kts 90°
2026-05-04 12:17 -6.18794 106.06063 14906 ft 372 kts 90°
2026-05-04 12:17 -6.18793 106.08604 14893 ft 362 kts 90°
2026-05-04 12:17 -6.18793 106.11091 14892 ft 350 kts 90°
2026-05-04 12:18 -6.18794 106.13494 14891 ft 340 kts 90°
2026-05-04 12:18 -6.18796 106.15872 14903 ft 341 kts 90°
2026-05-04 12:18 -6.18797 106.18263 14676 ft 343 kts 90°
2026-05-04 12:18 -6.18798 106.20651 14396 ft 341 kts 90°
2026-05-04 12:19 -6.18799 106.23034 14027 ft 340 kts 90°
2026-05-04 12:19 -6.18800 106.25404 13641 ft 338 kts 90°
2026-05-04 12:19 -6.18800 106.27760 13202 ft 337 kts 90°
2026-05-04 12:19 -6.18801 106.30075 12795 ft 335 kts 90°
2026-05-04 12:20 -6.18801 106.32405 12387 ft 333 kts 90°
2026-05-04 12:20 -6.18802 106.34724 11992 ft 331 kts 90°
2026-05-04 12:20 -6.18802 106.37025 11595 ft 329 kts 90°
2026-05-04 12:20 -6.18802 106.39317 11206 ft 327 kts 90°
2026-05-04 12:21 -6.18802 106.41596 10849 ft 325 kts 90°
2026-05-04 12:21 -6.18802 106.43855 10517 ft 321 kts 90°
2026-05-04 12:21 -6.18801 106.46036 10401 ft 311 kts 90°
2026-05-04 12:21 -6.18801 106.48180 10256 ft 303 kts 90°
2026-05-04 12:22 -6.18801 106.50265 10123 ft 294 kts 90°
2026-05-04 12:22 -6.18796 106.52291 9985 ft 286 kts 88°
2026-05-04 12:22 -6.18409 106.54240 9663 ft 286 kts 68°
2026-05-04 12:22 -6.17633 106.56069 9360 ft 284 kts 68°
2026-05-04 12:23 -6.16873 106.57903 9047 ft 283 kts 68°
2026-05-04 12:23 -6.16129 106.59733 8740 ft 282 kts 68°
2026-05-04 12:23 -6.15404 106.61530 8452 ft 281 kts 68°
2026-05-04 12:23 -6.14710 106.63260 8168 ft 280 kts 69°
2026-05-04 12:24 -6.13985 106.65070 7873 ft 279 kts 69°
2026-05-04 12:24 -6.13265 106.66870 7587 ft 277 kts 69°
2026-05-04 12:24 -6.12546 106.68668 7299 ft 276 kts 69°
2026-05-04 12:24 -6.11831 106.70457 7012 ft 276 kts 69°
2026-05-04 12:25 -6.11120 106.72238 6721 ft 275 kts 69°
2026-05-04 12:25 -6.10410 106.74015 6439 ft 274 kts 69°
2026-05-04 12:25 -6.09712 106.75764 6146 ft 273 kts 69°
2026-05-04 12:25 -6.09005 106.77535 5840 ft 272 kts 69°
2026-05-04 12:26 -6.08302 106.79294 5547 ft 271 kts 69°
2026-05-04 12:26 -6.07603 106.81046 5244 ft 270 kts 69°
2026-05-04 12:26 -6.06912 106.82777 5110 ft 263 kts 69°
2026-05-04 12:26 -6.06239 106.84460 4976 ft 256 kts 69°
2026-05-04 12:27 -6.05586 106.86096 4860 ft 249 kts 69°
2026-05-04 12:27 -6.04778 106.87596 4742 ft 243 kts 48°
2026-05-04 12:27 -6.03472 106.88584 4681 ft 235 kts 32°
2026-05-04 12:27 -6.02073 106.89394 4496 ft 231 kts 31°
2026-05-04 12:28 -6.00703 106.90168 4476 ft 220 kts 33°
2026-05-04 12:28 -5.99588 106.91171 4455 ft 214 kts 52°
2026-05-04 12:28 -5.98630 106.92334 4458 ft 220 kts 51°
2026-05-04 12:28 -5.97607 106.93580 3972 ft 234 kts 59°
2026-05-04 12:29 -5.97168 106.95061 3961 ft 219 kts 98°
2026-05-04 12:29 -5.97802 106.96405 3980 ft 218 kts 137°
2026-05-04 12:29 -5.99157 106.96985 4013 ft 222 kts 178°
2026-05-04 12:29 -6.00620 106.96521 4007 ft 228 kts 218°
2026-05-04 12:30 -6.01566 106.95237 4020 ft 232 kts 242°
2026-05-04 12:30 -6.02344 106.93837 4016 ft 224 kts 238°
2026-05-04 12:30 -6.03072 106.92509 3990 ft 210 kts 245°
2026-05-04 12:30 -6.03630 106.91178 3998 ft 206 kts 248°
2026-05-04 12:31 -6.04153 106.89849 3999 ft 204 kts 248°
2026-05-04 12:31 -6.04684 106.88501 3837 ft 209 kts 248°
2026-05-04 12:31 -6.05213 106.87166 3698 ft 208 kts 248°
2026-05-04 12:31 -6.05752 106.85807 3499 ft 205 kts 247°
2026-05-04 12:32 -6.06267 106.84508 3340 ft 201 kts 247°
2026-05-04 12:32 -6.07297 106.81913 3017 ft 203 kts 247°
2026-05-04 12:32 -6.07827 106.80577 2744 ft 207 kts 248°
2026-05-04 12:33 -6.08356 106.79243 2470 ft 205 kts 248°
2026-05-04 12:33 -6.08878 106.77928 2194 ft 198 kts 248°
2026-05-04 12:33 -6.09379 106.76665 1939 ft 192 kts 248°
2026-05-04 12:33 -6.09866 106.75437 1700 ft 193 kts 248°
2026-05-04 12:34 -6.10362 106.74185 1438 ft 191 kts 247°
2026-05-04 12:34 -6.10845 106.72970 1197 ft 183 kts 247°
2026-05-04 12:34 -6.11303 106.71816 985 ft 171 kts 247°
2026-05-04 12:34 -6.11718 106.70767 753 ft 152 kts 246°
2026-05-04 12:35 -6.12102 106.69801 542 ft 148 kts 248°
2026-05-04 12:35 -6.12465 106.68845 407 ft 145 kts 249°
2026-05-04 12:35 -6.12832 106.67920 230 ft 143 kts 247°
2026-05-04 12:35 -6.13210 106.66993 50 ft 141 kts 248°
2026-05-04 12:36 -6.13556 106.66118 39 ft 113 kts 248°
2026-05-04 12:36 -6.13739 106.65652 38 ft 25 kts 250°
2026-05-04 12:36 -6.13758 106.65497 39 ft 14 kts 277°
2026-05-04 12:36 -6.13750 106.65437 39 ft 8 kts 278°
2026-05-04 12:37 -6.13747 106.65415 39 ft 5 kts 278°
2026-05-04 12:37 -6.13736 106.65373 38 ft 7 kts 303°
2026-05-04 12:37 -6.13696 106.65353 38 ft 7 kts 355°
2026-05-04 12:37 -6.13658 106.65375 37 ft 7 kts 59°
2026-05-04 12:38 -6.13640 106.65416 38 ft 6 kts 66°
2026-05-04 12:38 -6.13623 106.65458 38 ft 6 kts 68°
2026-05-04 12:38 -6.13607 106.65498 37 ft 6 kts 68°
2026-05-04 12:38 -6.13591 106.65538 36 ft 6 kts 68°
2026-05-04 12:39 -6.13576 106.65577 37 ft 6 kts 68°
2026-05-04 12:39 -6.13560 106.65616 37 ft 6 kts 68°
2026-05-04 12:39 -6.13545 106.65653 37 ft 6 kts 68°
2026-05-04 12:39 -6.13530 106.65691 37 ft 6 kts 68°
2026-05-04 12:40 -6.13516 106.65727 37 ft 6 kts 68°
2026-05-04 12:40 -6.13501 106.65763 37 ft 6 kts 68°
2026-05-04 12:40 -6.13488 106.65798 37 ft 5 kts 68°
2026-05-04 12:40 -6.13473 106.65833 37 ft 5 kts 68°
2026-05-04 12:41 -6.13449 106.65859 37 ft 5 kts 14°
2026-05-04 12:41 -6.13412 106.65858 37 ft 5 kts 351°
2026-05-04 12:41 -6.13379 106.65845 37 ft 5 kts 338°
2026-05-04 12:41 -6.13346 106.65832 37 ft 5 kts 339°
2026-05-04 12:42 -6.13312 106.65823 37 ft 5 kts 355°
2026-05-04 12:42 -6.13279 106.65815 37 ft 5 kts 327°
2026-05-04 12:42 -6.13264 106.65785 37 ft 5 kts 282°
2026-05-04 12:42 -6.13260 106.65764 37 ft 1 kts 280°